Location: Blackie
(50.6050°N, 113.6230°W)
Time: 01:02:46
(UTC+00:00)

N. Korean satellite - Pass Details

Date: 06 December 2021
Orbit: 446 x 492 km, 97.3° (Epoch: 16 January)

Event Time Altitude Azimuth Distance (km) Brightness Sun altitude
Rises 13:09:27 0° 11° (N) 2,470 10.2 -19.7°
Reaches altitude 10° 13:11:30 10° 9° (N) 1,589 9.1 -19.4°
Maximum altitude 13:14:53 70° 286° (WNW) 483 6.2 -18.9°
Drops below altitude 10° 13:18:14 10° 202° (SSW) 1,572 9.1 -18.4°
Sets 13:20:08 0° 200° (SSW) 2,389 10.0 -18.1°
